Phnom Penh, Cambodia

1:10 AM +07 on January 17, 2018 (GMT +0700)
Pochentong International

Weather History for VDPP - October, 2013

Change the Weather History Date:

Tuesday, October 1, 2013

  Actual Average Record
Temperature  
Mean Temperature 84 °F -  
Max Temperature 89 °F 84 °F 95 °F (2011)
Min Temperature 78 °F 76 °F 73 °F (2005)
Cooling Degree Days 18    
Growing Degree Days 34 (Base 50)    
Moisture  
Dew Point 73 °F    
Average Humidity 75    
Maximum Humidity 89    
Minimum Humidity 52    
Precipitation  
Precipitation 0.00 in - - ()
Sea Level Pressure  
Sea Level Pressure 29.73 in    
Wind  
Wind Speed 5 mph ()    
Max Wind Speed 10 mph    
Max Gust Speed -    
Visibility 5.7 miles    
Events Rain    
Averages and records for this station are not official NWS values.
T = Trace of Precipitation, MM = Missing Value Source: Averaged Metar Reports

Daily Weather History Graph

Daily Weather History Graph

Search for Another Location

Airport or City:

Trip Planner

Search our weather history database for the weather conditions in past years. The results will help you decide how hot, cold, wet, or windy it might be!

Date:

Astronomy

Oct. 01, 2013 Rise Set
Actual Time 5:49 AM +07 5:50 PM +07
Civil Twilight 5:28 AM +07 6:12 PM +07
Nautical Twilight 5:03 AM +07 6:36 PM +07
Astronomical Twilight 4:39 AM +07 7:00 PM +07
Moon 2:28 AM +07 (10/1) 3:06 PM +07 (10/1)
Length of Visible Light 12h 43m
Length of Day
12h 01m
Waning Crescent, 15% of the Moon is Illuminated
Oct 1
Waning Crescent
Oct 5
New
Oct 12
First Quarter
Oct 19
Full
Oct 27
Last Quarter

Hourly Weather History & Observations

Time (+07) Temp. Heat Index Dew Point Humidity Pressure Visibility Wind Dir Wind Speed Gust Speed Precip Events Conditions
6:00 AM 78.8 °F - 75.2 °F 89% 29.68 in 6.2 mi West 4.6 mph - N/A   Mostly Cloudy
7:00 AM 79 °F - 76 °F 87% 29.77 in 6 mi Calm Calm - -   Overcast
7:00 AM 78.8 °F - 75.2 °F 89% 29.71 in 6.2 mi NE 2.3 mph - N/A   Mostly Cloudy
7:30 AM 78.8 °F - 73.4 °F 83% 29.74 in 6.2 mi SE 3.5 mph - N/A   Mostly Cloudy
8:00 AM 80.6 °F 85.4 °F 73.4 °F 79% 29.74 in 6.2 mi SE 3.5 mph - N/A   Scattered Clouds
8:30 AM 82.4 °F 88.2 °F 73.4 °F 74% 29.74 in 6.2 mi ENE 3.5 mph - N/A   Scattered Clouds
9:00 AM 84.2 °F 90.9 °F 73.4 °F 70% 29.77 in 6.2 mi SSW 5.8 mph - N/A   Scattered Clouds
9:30 AM 82.4 °F 88.2 °F 73.4 °F 74% 29.77 in 6.2 mi SW 6.9 mph - N/A   Scattered Clouds
10:00 AM 84.2 °F 90.9 °F 73.4 °F 70% 29.77 in 6.2 mi WSW 10.4 mph - N/A   Scattered Clouds
10:30 AM 84.2 °F 90.9 °F 73.4 °F 70% 29.77 in 6.2 mi SW 10.4 mph - N/A   Scattered Clouds
11:00 AM 84.2 °F 90.9 °F 73.4 °F 70% 29.77 in 6.2 mi SSW 5.8 mph - N/A   Scattered Clouds
11:30 AM 86.0 °F 93.4 °F 73.4 °F 66% 29.74 in 6.2 mi South 4.6 mph - N/A   Scattered Clouds
12:00 PM 87.8 °F 95.6 °F 73.4 °F 62% 29.71 in 6.2 mi East 3.5 mph - N/A   Scattered Clouds
12:30 PM 87.8 °F 95.6 °F 73.4 °F 62% 29.71 in 6.2 mi SW 4.6 mph - N/A   Scattered Clouds
1:00 PM 89.6 °F 96.2 °F 71.6 °F 55% 29.68 in 6.2 mi West 9.2 mph - N/A   Scattered Clouds
1:30 PM 89.6 °F 94.7 °F 69.8 °F 52% 29.68 in 6.2 mi North 5.8 mph - N/A   Scattered Clouds
2:00 PM 89.6 °F 98.2 °F 73.4 °F 59% 29.68 in 6.2 mi NE 3.5 mph - N/A   Scattered Clouds
2:30 PM 89.6 °F 98.2 °F 73.4 °F 59% 29.65 in 6.2 mi SE 5.8 mph - N/A   Scattered Clouds
3:00 PM 89.6 °F 98.2 °F 73.4 °F 59% 29.65 in 6.2 mi ENE 8.1 mph - N/A   Scattered Clouds
3:30 PM 87.8 °F 95.6 °F 73.4 °F 62% 29.65 in 5.6 mi East 6.9 mph - N/A   Mostly Cloudy
4:00 PM 82.4 °F 89.5 °F 75.2 °F 79% 29.68 in 1.2 mi East 6.9 mph - N/A Rain Heavy Rain Showers
4:30 PM 78.8 °F - 75.2 °F 89% 29.68 in 3.1 mi ENE 6.9 mph - N/A Rain Rain
5:00 PM 80.6 °F 86.2 °F 75.2 °F 84% 29.68 in 5.6 mi North 5.8 mph - N/A Rain Light Rain
6:00 PM 78.8 °F - 71.6 °F 78% 29.71 in 5.6 mi West 5.8 mph - N/A   Mostly Cloudy
6:30 PM 78.8 °F - 71.6 °F 78% 29.74 in 5.6 mi West 6.9 mph - N/A   Mostly Cloudy
7:00 PM 78.8 °F - 71.6 °F 78% 29.74 in 5.6 mi West 8.1 mph - N/A   Mostly Cloudy
7:30 PM 78.8 °F - 71.6 °F 78% 29.77 in 5.6 mi West 8.1 mph - N/A   Mostly Cloudy
8:00 PM 78.8 °F - 73.4 °F 83% 29.77 in 5.6 mi WSW 8.1 mph - N/A   Mostly Cloudy
8:30 PM 78.8 °F - 73.4 °F 83% 29.80 in 5.6 mi SW 4.6 mph - N/A   Scattered Clouds
9:00 PM 78.8 °F - 73.4 °F 83% 29.80 in 5.6 mi SW 4.6 mph - N/A   Scattered Clouds
9:30 PM 78.8 °F - 75.2 °F 89% 29.80 in 5.6 mi SSW 4.6 mph - N/A   Scattered Clouds
10:00 PM 78.8 °F - 73.4 °F 83% 29.80 in 5.6 mi SSW 4.6 mph - N/A   Scattered Clouds
11:30 PM 78.8 °F - 73.4 °F 83% 29.80 in 5.6 mi West 3.5 mph - N/A   Scattered Clouds